{"data":{"norad_id":69127,"epoch":"2026-09-19T18:59:09.244608Z","epoch_age_seconds":84427,"freshness":"FRESH","line1":"1 69127U 26110D   26262.79107922  .00014916  00000+0  46317-3 0  9994","line2":"2 69127  97.2852  97.8008 0002613  91.4089 268.7453 15.33461793 20105","mean_motion":15.33461793,"eccentricity":0.0002613,"inclination_deg":97.2852,"raan_deg":97.8008,"arg_perigee_deg":91.4089,"mean_anomaly_deg":268.7453,"bstar":0.00046317,"rev_number":2010,"period_min":93.905176286319,"perigee_km":463.7049702069,"apogee_km":467.28145135506,"semimajor_km":6843.630210781,"source":"CELESTRAK","updated_at":"2026-09-20T09:00:44.063994Z"}}